Simultaneous Nadir Overpasses (SNOs) Predictions

Prediction of SNOs between NOAA-19 and TERRA Satellite Orbit:

Table of predicted SNOs for the next 14.0 days since TLE Epoch: 10/17/2020
Index Date (NOAA-19) Time (NOAA-19) Lat,Lon (NOAA-19) SZA (NOAA-19 ) Date (TERRA) Time (TERRA) Lat,Lon (TERRA) SZA (TERRA ) Distance(km) Time Diff (sec)
1 10/18/2020 15:45:09 79.78, -25.92 91.40 10/18/2020 15:45:23 79.80, -25.94 91.42 2.46 14
2 10/18/2020 16:36:02 -79.61, 143.21 88.55 10/18/2020 16:34:53 -79.69, 140.88 88.74 47.53 69
3 10/20/2020 21:18:24 -79.80, 70.64 87.80 10/20/2020 21:19:07 -79.80, 70.63 87.78 0.59 43
4 10/20/2020 22:09:24 79.78,-121.98 92.22 10/20/2020 22:08:34 79.76,-122.01 92.18 2.49 50
5 10/23/2020 02:51:39 79.80, 167.32 93.00 10/23/2020 02:52:50 79.79, 167.16 93.01 3.35 71
6 10/23/2020 03:42:39 -79.79, -25.22 86.98 10/23/2020 03:42:17 -79.80, -25.16 86.98 1.93 22
7 10/25/2020 09:15:54 79.81, 71.25 93.80 10/25/2020 09:16:00 79.79, 71.33 93.79 2.96 6
8 10/27/2020 14:49:10 -79.81, 168.06 85.44 10/27/2020 14:49:43 -79.83, 168.17 85.40 2.92 33
9 10/27/2020 15:40:08 79.80, -24.52 94.58 10/27/2020 15:39:10 79.78, -24.52 94.54 1.45 58
10 10/29/2020 20:22:23 79.82, -95.24 95.31 10/29/2020 20:23:26 79.81, -95.40 95.31 3.32 63
